sat.trackr.live / text

‹ back to catalog

STARLINK-5805

NORAD 56912 · 2023-083AN

PAYLOAD ACTIVE UNKNOWN

§ Identity

Operator
Country
US
Launch date
2023-06-12
Launch site
AFETR
Launch vehicle
Mass (kg)
RCS (m²)

Purposes: comms

External: N2YO · Heavens-Above · Gunter

§ Orbital elements

Epoch: 2026-09-20T03:08:04.136352Z

Period
94.27 min
Inclination
43.0043°
Eccentricity
0.0001114
Mean motion
15.27558518 rev/d
Perigee alt
482.3 km
Apogee alt
483.9 km
Semi-major
6,861.3 km
B*
-6.8665e-5
RAAN
52.7286°
Arg perigee
269.2517°
Mean anomaly
90.8207°
Rev number
18,153

§ Raw data

STARLINK-58051 56912U 23083AN  26263.13060343 -.00002150  00000+0 -68665-4 0  99922 56912  43.0043  52.7286 0001114 269.2517  90.8207 15.27558518181539

JSON: /api/v1/satellites/56912 · /tle

For live sub-satellite position, see the globe view (requires WebGL).

§ Visibility from observer

Set your observer location to see the next 7 days of passes ≥ 10°. The values pass through the URL so the page stays shareable.

No JS? Fill the form by hand. The geolocation button needs JavaScript.